Regional Weather Roundup
Issued by NWS

Home | Current Version | Previous Version | Text Only | Print | Product List | Glossary On
Versions: 1 2 3 4 5 6 7 8 9 10 11 12 13 14 15 16 17 18 19 20 21 22 23 24 25 26 27 28 29 30 31 32 33 34 35 36 37 38 39 40 41 42 43 44 45 46 47 48 49 50
520
ASUS43 KTOP 170359
RWRKS

WEATHER ROUNDUP FOR KANSAS
NATIONAL WEATHER SERVICE GOODLAND KS
1000 PM CST TUE JAN 16 2018

NOTE:  "FAIR" INDICATES FEW OR NO CLOUDS BELOW 12,000 FEET WITH NO
SIGNIFICANT WEATHER AND/OR OBSTRUCTIONS TO VISIBILITY.

KSZ001>006-013>018-027>032-041>047-170500-
NORTHWEST KANSAS

CITY           SKY/WX    TMP DP  RH WIND       PRES   REMARKS
GOODLAND       CLEAR      9  -3  58 S12       30.39F WCI  -6
HAYS           CLOUDY     4  -1  80 S6        30.61S
HILL CITY      CLOUDY     7  -1  70 SW3       30.56S
RUSSELL        CLOUDY     3  -1  83 S7        30.61S
$$

KSZ061>065-074>080-084>089-170500-
SOUTHWEST KANSAS

CITY           SKY/WX    TMP DP  RH WIND       PRES   REMARKS
DODGE CITY     CLOUDY     5  -5  63 S7        30.55F
GARDEN CITY    CLOUDY     4  -8  57 S7        30.51F
GREAT BEND     CLOUDY    -1  -5  82 SW3       30.64R
LIBERAL        CLOUDY     7  -6  55 S7        30.55F
$$

KSZ066>073-081>083-090>101-170500-
SOUTHEAST KANSAS

CITY           SKY/WX    TMP DP  RH WIND       PRES   REMARKS
CHANUTE        CLOUDY     5   0  79 W5        30.73S
COFFEYVILLE    CLOUDY     4   0  83 CALM      30.77R
HUTCHINSON     CLOUDY     0  -4  83 CALM      30.67S
MEDICINE LODGE   N/A      9   1  70 CALM      30.67S
NEWTON         CLOUDY     3  -2  79 S5        30.68S
PARSONS        CLOUDY     0  -5  79 CALM      30.75S
WICHITA INTL   CLOUDY     8   4  83 CALM      30.69F
WICHITA JABRA  CLOUDY     9   5  84 CALM      30.68F
WICHITA MCCONL CLOUDY    10   3  75 CALM      30.68F
WINFIELD       CLOUDY     5   1  83 CALM      30.73S
$$

KSZ007>012-019>026-033>040-048>060-102>105-170500-
NORTHEAST KANSAS

CITY           SKY/WX    TMP DP  RH WIND       PRES   REMARKS
CONCORDIA      CLOUDY     4  -1  80 S6        30.65S
EMPORIA        CLOUDY     4   0  83 W5        30.70S
LAWRENCE       CLOUDY    -4  -8  83 CALM      30.72F
MANHATTAN      CLOUDY     1  -4  79 CALM      30.72R
OLATHE IND     CLOUDY     2  -3  80 CALM      30.71S
OLATHE EXE     CLOUDY     3  -1  83 CALM      30.69F
SALINA         CLOUDY     5   1  83 S5        30.69S
TOPEKA BILLARD CLOUDY     1  -2  87 CALM      30.72S
TOPEKA FORBES  CLOUDY     0  -5  79 SW7       30.70S
$$




USA.gov is the U.S. government's official web portal to all federal, state and local government web resources and services.